Погода в Кампу-Гранди

Бразилия     20°27′46″S   54°37′08″W
темп.,
°C
ветер,
м/с
пор.,
м/с
влажн.,
%
обл.,
%
осадки,
мм/ч
давл.,
гПа
погр.,
м
26 февраля, пт
пт2623:00+22ююв3890100 2.4 1010320
02:00+21в2491100 2.8 1008131
05:00+21св2388100 0.1 100896
08:00+23всв3475100 0.8 1010284
11:00+29с1256100 0.3 1010958
14:00+29юз456260 2.6 10071268
17:00+27ююз247416 3.9 1006664
20:00+23юв49878 4.3 1009362
27 февраля, сб
сб2723:00+22вюв411890 0.0 1010413
02:00+21вюв512922 0.0 1009467
05:00+20вюв5119621 0.0 1009438
08:00+21вюв589250 0.0 1011422
11:00+25в458096 0.0 1010501
14:00+28вюв446570 0.0 10071110
17:00+27юв467214 0.1 1006911
20:00+23юв511829 0.1 1008452
28 февраля, вс
вс2823:00+21вюв410890 0.0 1010406
02:00+21вюв510922 0.0 1008370
05:00+20в499424 0.0 1008314
08:00+23в478531 0.0 1009388
11:00+28в44648 0.0 10091090
14:00+28вюв436735 1.6 1006971
17:00+26вюв45796 3.4 1005732
20:00+22вюв59915 8.1 1007330
1 марта, пн
пн123:00+21в389313 1.3 1008271
02:00+21св389321 1.3 1007242
05:00+20ссв499421 0.0 1008348
08:00+23с588115 0.0 1009556
11:00+27с466911 0.6 10091061
14:00+28ссв346624 2.7 10061099
17:00+27ссв237771 5.4 1005343
20:00+23св378686 14.8 1008179
2 марта, вт
вт223:00+22ссв4987100 0.7 1009337
02:00+21с399090 0.7 1009352
05:00+21ссв389054 0.0 1010319
08:00+24с587640 0.0 1011705
11:00+27с46661 0.1 10111194
14:00+28с34695 4.0 1008899
17:00+26ссв3579100 3.7 1007495
20:00+23св128499 8.9 101075